Terminal Aerodrome Forecast
Issued by NWS

Home | Current Version | Previous Version | Text Only | Print | Product List | Glossary On
Versions: 1 2 3 4 5 6 7 8 9 10 11 12 13 14 15 16 17
000
FTUS45 KRIW 271100
TAFBPI
TAF
KBPI 271124Z 2712/2812 01006KT P6SM VCFG SCT003 BKN028
      TEMPO 2712/2714 1SM BR BKN003
     FM271430 VRB04KT P6SM VCFG FEW010 SCT050
     FM271600 VRB05KT P6SM VCSH SCT050 BKN080
     FM272000 VRB10G17KT P6SM VCTS SCT040 OVC060CB
     FM280300 34007KT P6SM VCSH SCT035 BKN060=

USA.gov is the U.S. government's official web portal to all federal, state and local government web resources and services.